METEOR 1-17

导读 | 星芒AI

METEOR 1-17 是苏联于1982年发射的一颗气象卫星,属于 METEOR 系列,主要用于气象观测和地球资源探测。该卫星搭载了多种遥感仪器,能够收集云层分布、地表温度和大气参数等数据,支持天气预报和环境监测。它采用近极地轨道,确保对全球范围的覆盖。METEOR 1-17 在苏联的气象卫星发展中具有重要意义,为后续卫星系统提供了技术积累和运行经验。

基本信息
目录编号:
7274
目录名称:
METEOR 1-17
国际标识:
1974-025A
轨道中心:
EARTH
卫星名称:
METEOR 1-17
卫星全名:
--
卫星状态:
在轨 (已飞行18861 天)
发射日期:
1974-04-24 UTC
国别 :
俄罗斯(独联体) (CIS)
星等 :
--
轨道信息
数据来源 国际轨道数据
星历时间: 2025-12-13T07:17:04+0800
12小时前
查看轨道信息
半长轴: 7241.349km
偏心率: 0.0017943
轨道倾角: 81.212°
近地点辐角 142.731°
升交点赤经 118.808°
平近点角 217.511°
近地点: 850.22km
远地点: 876.208km
周期: 102.209分钟
每日圈数: 14.088787
详细信息
使用方式:
暂无
2D轨道图
3D轨道图
轨道高度分析图
轨道倾角分析图
轨道综合分析图
查看轨道综合分析图